When you browse on this site, cookies collect data to enhance your experience and personalize the content and advertising you see.
Visit our Privacy Policy to learn more. By continuing to use the site, you agree to this use of cookies and data.
  • In Latvia
  • List of Countries
  • For 7 days
  • Water Temperature
  • Weather Map
  • Weather Widgets
  • user-avatar
    Login

    Hourly Weather Prutz

    Today, 17 August, Saturday

    Time Temperature Precipitation Wind Pressure Humidity
    00:00 +10°C° 0 mm 1 mps 634 mmHg 81%
    01:00 +9°C° 0 mm 2 mps 634 mmHg 79%
    02:00 +10°C° 0 mm 1 mps 634 mmHg 79%
    03:00 +10°C° 0 mm 1 mps 634 mmHg 79%
    04:00 +10°C° 0 mm 1 mps 634 mmHg 79%
    05:00 +11°C° 0 mm 1 mps 635 mmHg 73%
    06:00 +13°C° 0 mm 1 mps 635 mmHg 68%
    07:00 +15°C° 0 mm 1 mps 636 mmHg 63%
    08:00 +18°C° 0 mm 1 mps 637 mmHg 55%
    09:00 +20°C° 0 mm 1 mps 637 mmHg 46%
    10:00 +22°C° 0 mm 1 mps 638 mmHg 38%
    11:00 +22°C° 0 mm 1 mps 638 mmHg 37%
    12:00 +23°C° 0 mm 1 mps 638 mmHg 36%
    13:00 +24°C° 0 mm 1 mps 638 mmHg 35%
    14:00 +24°C° 0 mm 1 mps 638 mmHg 38%
    15:00 +23°C° 0 mm 1 mps 638 mmHg 41%
    16:00 +23°C° 0 mm 1 mps 637 mmHg 44%
    17:00 +21°C° 0 mm 1 mps 637 mmHg 56%
    18:00 +19°C° 0 mm 1 mps 637 mmHg 69%
    19:00 +16°C° 0 mm 1 mps 636 mmHg 81%
    20:00 +16°C° 0 mm 1 mps 636 mmHg 84%
    21:00 +15°C° 0 mm 1 mps 636 mmHg 87%
    22:00 +14°C° 0 mm 1 mps 635 mmHg 89%
    23:00 +14°C° 0 mm 1 mps 635 mmHg 89%

    Tomorrow, 18 August, Sunday

    Time Temperature Precipitation Wind Pressure Humidity
    00:00 +14°C° 0 mm 1 mps 635 mmHg 89%
    01:00 +13°C° 0 mm 2 mps 635 mmHg 90%
    02:00 +13°C° 0 mm 2 mps 634 mmHg 89%
    03:00 +13°C° 0 mm 2 mps 634 mmHg 89%
    04:00 +12°C° 0 mm 2 mps 634 mmHg 88%
    05:00 +14°C° 0 mm 2 mps 634 mmHg 85%
    06:00 +15°C° 0 mm 2 mps 635 mmHg 81%
    07:00 +16°C° 0 mm 2 mps 635 mmHg 78%
    08:00 +19°C° 0 mm 1 mps 636 mmHg 70%
    09:00 +21°C° 0 mm 1 mps 636 mmHg 61%
    10:00 +23°C° 0 mm 1 mps 637 mmHg 53%
    11:00 +24°C° 0 mm 1 mps 637 mmHg 50%
    12:00 +25°C° 0 mm 1 mps 637 mmHg 47%
    13:00 +26°C° 0 mm 1 mps 637 mmHg 44%
    14:00 +25°C° 0.1 mm 1 mps 637 mmHg 49%
    15:00 +24°C° 0.1 mm 1 mps 637 mmHg 53%
    16:00 +23°C° 0.1 mm 1 mps 636 mmHg 58%
    17:00 +22°C° 0.4 mm 1 mps 636 mmHg 66%
    18:00 +20°C° 0.4 mm 1 mps 635 mmHg 75%
    19:00 +18°C° 0.4 mm 1 mps 635 mmHg 84%
    20:00 +16°C° 0.2 mm 1 mps 635 mmHg 86%
    21:00 +15°C° 0.2 mm 2 mps 635 mmHg 88%
    22:00 +14°C° 0.2 mm 2 mps 635 mmHg 90%
    23:00 +14°C° 0 mm 2 mps 635 mmHg 91%

    Day after tomorrow, 19 August, Monday

    Time Temperature Precipitation Wind Pressure Humidity
    00:00 +14°C° 0 mm 2 mps 635 mmHg 91%
    01:00 +13°C° 0 mm 2 mps 635 mmHg 92%
    02:00 +13°C° 0 mm 1 mps 635 mmHg 93%
    03:00 +13°C° 0 mm 1 mps 635 mmHg 93%
    04:00 +13°C° 0 mm 1 mps 635 mmHg 93%
    05:00 +13°C° 0.1 mm 1 mps 636 mmHg 91%
    06:00 +14°C° 0.1 mm 1 mps 636 mmHg 89%
    07:00 +15°C° 0.1 mm 1 mps 637 mmHg 87%
    08:00 +16°C° 0.2 mm 1 mps 637 mmHg 83%
    09:00 +18°C° 0.2 mm 1 mps 638 mmHg 78%
    10:00 +20°C° 0.2 mm 1 mps 638 mmHg 74%
    11:00 +20°C° 0.7 mm 1 mps 638 mmHg 74%
    12:00 +20°C° 0.7 mm 1 mps 638 mmHg 75%
    13:00 +19°C° 0.7 mm 2 mps 638 mmHg 75%
    14:00 +19°C° 1.1 mm 2 mps 638 mmHg 79%
    15:00 +19°C° 1.1 mm 1 mps 637 mmHg 83%
    16:00 +18°C° 1.1 mm 1 mps 637 mmHg 86%
    17:00 +16°C° 1.4 mm 1 mps 637 mmHg 89%
    18:00 +16°C° 1.4 mm 1 mps 637 mmHg 91%
    19:00 +15°C° 1.4 mm 1 mps 636 mmHg 93%
    20:00 +14°C° 0.4 mm 1 mps 637 mmHg 93%
    21:00 +14°C° 0.4 mm 1 mps 637 mmHg 92%
    22:00 +14°C° 0.4 mm 1 mps 637 mmHg 92%
    23:00 +14°C° 0.2 mm 1 mps 637 mmHg 91%

    20 August, Tuesday

    Time Temperature Precipitation Wind Pressure Humidity
    00:00 +14°C° 0.2 mm 1 mps 637 mmHg 91%
    01:00 +14°C° 0.2 mm 1 mps 637 mmHg 90%
    02:00 +14°C° 0.2 mm 1 mps 637 mmHg 91%
    03:00 +14°C° 0.2 mm 1 mps 637 mmHg 92%
    04:00 +13°C° 0.2 mm 0 mps 637 mmHg 94%
    05:00 +13°C° 0.6 mm 0 mps 637 mmHg 94%
    06:00 +14°C° 0.6 mm 1 mps 637 mmHg 94%
    07:00 +14°C° 0.6 mm 1 mps 637 mmHg 94%
    08:00 +15°C° 0.3 mm 1 mps 637 mmHg 90%
    09:00 +16°C° 0.3 mm 1 mps 637 mmHg 86%
    10:00 +19°C° 0.3 mm 1 mps 638 mmHg 82%
    11:00 +18°C° 0.6 mm 2 mps 638 mmHg 80%
    12:00 +19°C° 0.6 mm 2 mps 638 mmHg 78%
    13:00 +20°C° 0.6 mm 2 mps 638 mmHg 76%
    14:00 +18°C° 2 mm 2 mps 638 mmHg 81%
    15:00 +17°C° 2 mm 2 mps 638 mmHg 85%
    16:00 +16°C° 2 mm 2 mps 638 mmHg 89%
    17:00 +15°C° 2.6 mm 2 mps 638 mmHg 92%
    18:00 +13°C° 2.6 mm 2 mps 638 mmHg 94%
    19:00 +12°C° 2.6 mm 2 mps 638 mmHg 97%
    20:00 +10°C° 2.1 mm 2 mps 638 mmHg 97%
    21:00 +10°C° 2.1 mm 2 mps 638 mmHg 97%
    22:00 +11°C° 2.1 mm 1 mps 639 mmHg 96%
    23:00 +11°C° 1.6 mm 1 mps 639 mmHg 96%

    21 August, Wednesday

    Time Temperature Precipitation Wind Pressure Humidity
    00:00 +10°C° 1.6 mm 1 mps 638 mmHg 96%
    01:00 +10°C° 1.6 mm 1 mps 638 mmHg 96%
    02:00 +10°C° 1.1 mm 1 mps 638 mmHg 97%
    03:00 +10°C° 1.1 mm 1 mps 638 mmHg 97%
    04:00 +10°C° 1.1 mm 1 mps 638 mmHg 97%
    05:00 +10°C° 0.1 mm 1 mps 639 mmHg 96%
    06:00 +10°C° 0.1 mm 1 mps 639 mmHg 96%
    07:00 +11°C° 0.1 mm 1 mps 639 mmHg 96%
    08:00 +12°C° 0 mm 1 mps 639 mmHg 91%
    09:00 +13°C° 0 mm 1 mps 640 mmHg 87%
    10:00 +14°C° 0 mm 1 mps 640 mmHg 82%
    11:00 +15°C° 0 mm 1 mps 640 mmHg 78%
    12:00 +16°C° 0 mm 2 mps 640 mmHg 74%
    13:00 +17°C° 0 mm 2 mps 640 mmHg 70%
    14:00 +17°C° 0.1 mm 2 mps 640 mmHg 72%
    15:00 +17°C° 0.1 mm 2 mps 640 mmHg 73%
    16:00 +16°C° 0.1 mm 2 mps 640 mmHg 75%
    17:00 +16°C° 0.1 mm 2 mps 640 mmHg 80%
    18:00 +15°C° 0.1 mm 2 mps 640 mmHg 85%
    19:00 +14°C° 0.1 mm 1 mps 639 mmHg 90%
    20:00 +13°C° 0.1 mm 1 mps 639 mmHg 92%
    21:00 +12°C° 0.1 mm 1 mps 639 mmHg 94%
    22:00 +11°C° 0.1 mm 1 mps 639 mmHg 96%
    23:00 +11°C° 0 mm 1 mps 639 mmHg 95%

    22 August, Thursday

    Time Temperature Precipitation Wind Pressure Humidity
    00:00 +11°C° 0 mm 1 mps 639 mmHg 95%
    01:00 +11°C° 0 mm 1 mps 639 mmHg 94%
    02:00 +11°C° 0 mm 1 mps 639 mmHg 93%
    03:00 +11°C° 0 mm 1 mps 638 mmHg 92%
    04:00 +11°C° 0 mm 1 mps 638 mmHg 91%
    05:00 +12°C° 0 mm 1 mps 639 mmHg 87%
    06:00 +13°C° 0 mm 1 mps 639 mmHg 84%
    07:00 +13°C° 0 mm 0 mps 640 mmHg 80%
    08:00 +16°C° 0 mm 1 mps 640 mmHg 72%
    09:00 +19°C° 0 mm 1 mps 641 mmHg 64%
    10:00 +20°C° 0 mm 1 mps 642 mmHg 56%
    11:00 +21°C° 0.3 mm 1 mps 641 mmHg 54%
    12:00 +22°C° 0.3 mm 1 mps 641 mmHg 52%
    13:00 +21°C° 0.3 mm 2 mps 641 mmHg 50%
    14:00 +20°C° 1 mm 2 mps 641 mmHg 57%
    15:00 +20°C° 1 mm 2 mps 641 mmHg 63%
    16:00 +19°C° 1 mm 2 mps 640 mmHg 70%
    17:00 +19°C° 0.9 mm 1 mps 640 mmHg 76%
    18:00 +16°C° 0.9 mm 1 mps 640 mmHg 82%
    19:00 +14°C° 0.9 mm 0 mps 639 mmHg 88%
    20:00 +14°C° 0.3 mm 0 mps 639 mmHg 89%
    21:00 +13°C° 0.3 mm 0 mps 639 mmHg 89%
    22:00 +12°C° 0.3 mm 0 mps 639 mmHg 89%
    23:00 +13°C° 0 mm 1 mps 639 mmHg 88%
    Show more